Hourly Data Report for October 02, 2017

All times are specified in Local Standard Time (LST). Add 1 hour to adjust for Daylight Saving Time where and when it is observed.

FORT PROVIDENCE
NORTHWEST TERRITORIES

61°19'01.000" N
117°36'07.000" W
161.50 m
2201799
71087
WID

Download Data

Hourly Data (October 2017)
Hourly Data Report for October 2, 2017
Temp Definition
°C
Dew Point Temp Definition
°C
Rel Hum Definition
%
Wind Dir Definition
10's deg

Wind Spd Definition
km/h
Visibility Definition
km
Stn Press Definition
kPa
Hmdx Definition


Wind Chill Definition


Weather Definition


TIME
00:00 0.6 -2.9 77 30 8   100.95     LegendNANA
01:00 0.3 -2.9 79 32 7   101.01     LegendNANA
02:00 -0.4 -2.7 84 26 4   101.00   -2 LegendNANA
03:00 -0.7 -3.0 84 27 5   101.02   -2 LegendNANA
04:00 -1.0 -3.2 85 28 2   101.04   -2 LegendNANA
05:00 -0.8 -3.3 83 30 5   101.06   -2 LegendNANA
06:00 -0.9 -3.4 83 25 2   101.05   -2 LegendNANA
07:00 -1.1 -3.2 86 27 5   101.03   -3 LegendNANA
08:00 -0.6 -3.2 83 24 5   101.02   -2 LegendNANA
09:00 1.1 -2.5 77 25 10   101.01     LegendNANA
10:00 4.5 -1.5 65 25 8   100.98     LegendNANA
11:00 7.5 -1.1 54 24 6   100.93     LegendNANA
12:00 7.7 -1.1 54 26 9   100.85     LegendNANA
13:00 9.5 -2.1 44 25 11   100.76     LegendNANA
14:00 11.0 -3.2 37 21 11   100.66     LegendNANA
15:00 12.1 -1.8 38 23 12   100.56     LegendNANA
16:00 12.2 -2.5 36 23 10   100.45     LegendNANA
17:00 10.9 -2.2 40 21 8   100.37     LegendNANA
18:00 9.3 -1.2 48 19 10   100.28     LegendNANA
19:00 7.5 -1.2 54 18 10   100.18     LegendNANA
20:00 7.1 -1.2 55 17 10   100.07     LegendNANA
21:00 6.1 -1.6 57 19 13   99.93     LegendNANA
22:00 6.3 -1.5 57 19 10   99.87     LegendNANA
23:00 5.6 -1.8 59 17 8   99.74     LegendNANA

Notes on Data Quality.

Legend

  • E = Estimated
  • M = Missing
  • NA = Not Available
  • ‡ = Partner data that is not subject to review by the National Climate Archives
Date modified: